Weather History for Plattsburgh, NY

Change the Weather History Date:

Tuesday, March 26, 2013

  Actual Average Record
Temperature  
Mean Temperature 37 °F 34 °F  
Max Temperature 45 °F 43 °F 65 °F (1949)
Min Temperature 29 °F 24 °F 1 °F (1960)
Degree Days  
Heating Degree Days 28 31  
Month to date heating degree days 895 919  
Since 1 July heating degree days 6046 6531  
Cooling Degree Days 0 0  
Month to date cooling degree days 0 0  
Year to date cooling degree days 0 0  
Moisture  
Dew Point 23 °F    
Average Humidity 59    
Maximum Humidity 78    
Minimum Humidity 40    
Precipitation  
Precipitation T in - 0.70 in (1978)
Month to date precipitation 0.88  
Year to date precipitation 2.36  
Sea Level Pressure  
Sea Level Pressure 29.76 in    
Wind  
Wind Speed 8 mph (North)    
Max Wind Speed 18 mph    
Max Gust Speed 23 mph    
Visibility 10 miles    
Events      
T = Trace of Precipitation, MM = Missing Value Source: NWS Daily Summary

Daily Weather History Graph

Daily Weather History Graph

Search for Another Location

Airport:

Trip Planner

Search our weather history database for the weather conditions in past years. The results will help you decide how hot, cold, wet, or windy it might be!

Date:

Astronomy

Mar. 26, 2013 Rise Set
Actual Time 6:45 AM EDT 7:14 PM EDT
Civil Twilight 6:16 AM EDT 7:43 PM EDT
Nautical Twilight 5:41 AM EDT 8:18 PM EDT
Astronomical Twilight 5:06 AM EDT 8:53 PM EDT
Moon 6:48 PM EDT (3/26) 6:01 AM EDT (3/26)
Length of Visible Light 13h 27m
Length of Day
12h 28m
Waxing Gibbous, 99% of the Moon is Illuminated
Mar 26
Waxing Gibbous
Mar 27
Full
Apr 3
Last Quarter
Apr 10
New
Apr 18
First Quarter

Hourly Weather History & Observations

Time (EDT) Temp. Windchill Dew Point Humidity Pressure Visibility Wind Dir Wind Speed Gust Speed Precip Events Conditions
12:53 AM 34.0 °F 23.8 °F 26.1 °F 73% 29.67 in 10.0 mi North 16.1 mph - 0.00 in   Overcast
1:53 AM 32.0 °F 23.0 °F 25.0 °F 75% 29.68 in 10.0 mi North 11.5 mph - N/A   Mostly Cloudy
2:53 AM 34.0 °F 24.6 °F 25.0 °F 70% 29.68 in 10.0 mi North 13.8 mph - N/A   Overcast
3:53 AM 33.1 °F 23.4 °F 25.0 °F 72% 29.69 in 10.0 mi North 13.8 mph - N/A   Overcast
4:53 AM 33.1 °F 23.9 °F 25.0 °F 72% 29.70 in 10.0 mi NNW 12.7 mph - N/A   Overcast
5:53 AM 33.1 °F 24.9 °F 25.0 °F 72% 29.72 in 10.0 mi NNW 10.4 mph - N/A   Overcast
6:53 AM 33.1 °F 23.9 °F 23.0 °F 66% 29.73 in 10.0 mi North 12.7 mph - N/A   Overcast
7:53 AM 33.1 °F 23.9 °F 23.0 °F 66% 29.75 in 10.0 mi North 12.7 mph - N/A   Mostly Cloudy
8:53 AM 35.1 °F 26.9 °F 24.1 °F 64% 29.76 in 10.0 mi North 11.5 mph - N/A   Overcast
9:53 AM 37.0 °F 28.5 °F 24.1 °F 59% 29.77 in 10.0 mi North 13.8 mph - 0.00 in   Partly Cloudy
10:53 AM 39.9 °F 32.5 °F 25.0 °F 55% 29.78 in 10.0 mi North 12.7 mph - N/A   Clear
11:53 AM 39.9 °F 32.9 °F 25.0 °F 55% 29.79 in 10.0 mi NE 11.5 mph - N/A   Scattered Clouds
12:53 PM 39.9 °F 35.8 °F 21.9 °F 49% 29.78 in 10.0 mi North 5.8 mph - N/A   Mostly Cloudy
1:53 PM 43.0 °F 37.2 °F 23.0 °F 45% 29.78 in 10.0 mi NNE 10.4 mph - N/A   Scattered Clouds
2:53 PM 42.1 °F 38.4 °F 23.0 °F 47% 29.78 in 10.0 mi NE 5.8 mph - N/A   Clear
3:53 PM 41.0 °F 36.4 °F 21.9 °F 47% 29.78 in 10.0 mi ENE 6.9 mph - N/A   Partly Cloudy
4:53 PM 44.1 °F 41.5 °F 24.1 °F 45% 29.78 in 10.0 mi NNE 4.6 mph - N/A   Clear
5:53 PM 44.1 °F 39.5 °F 21.9 °F 42% 29.78 in 10.0 mi North 8.1 mph - N/A   Clear
6:53 PM 39.9 °F - 21.9 °F 49% 29.78 in 10.0 mi Calm Calm - N/A   Clear
7:53 PM 34.0 °F - 21.9 °F 61% 29.79 in 10.0 mi Calm Calm - N/A   Clear
8:53 PM 28.9 °F - 23.0 °F 78% 29.80 in 10.0 mi Calm Calm - N/A   Partly Cloudy
9:53 PM 36.0 °F - 21.9 °F 57% 29.81 in 10.0 mi Calm Calm - N/A   Overcast
10:53 PM 39.0 °F 35.7 °F 21.0 °F 49% 29.80 in 10.0 mi West 4.6 mph - N/A   Scattered Clouds
11:53 PM 37.0 °F 34.5 °F 21.0 °F 52% 29.79 in 10.0 mi West 3.5 mph - N/A   Mostly Cloudy